TimeCET,TemperatureF,Dew PointF,Humidity,Sea Level PressureIn,VisibilityMPH,Wind Direction,Wind SpeedMPH,Gust SpeedMPH,PrecipitationIn,Events,Conditions,WindDirDegrees,DateUTC
12:00 AM,50.0,44.6,82,29.50,-9999.0,NNW,2.3,-,N/A,,Clear,340,2013-03-06 23:00:00
12:30 AM,50.0,44.6,82,29.47,-9999.0,NNW,2.3,-,N/A,,Clear,340,2013-03-06 23:30:00
1:00 AM,49,44,77,29.50,7,SSW,2.3,,,,Partly Cloudy,210,2013-03-07 00:00:00
1:00 AM,50.0,44.6,82,29.47,-9999.0,SW,2.3,-,N/A,,Clear,220,2013-03-07 00:00:00
1:30 AM,48.2,44.6,87,29.47,5.6,West,3.5,-,N/A,,Unknown,280,2013-03-07 00:30:00
2:00 AM,48.2,44.6,87,29.47,3.1,WNW,3.5,-,N/A,,Mist,290,2013-03-07 01:00:00
2:30 AM,48.2,44.6,87,29.47,5.6,Variable,2.3,-,N/A,,Unknown,0,2013-03-07 01:30:00
3:00 AM,48.2,44.6,87,29.47,5.0,Calm,Calm,-,N/A,,Unknown,0,2013-03-07 02:00:00
3:30 AM,50.0,44.6,82,29.47,4.3,WSW,6.9,-,N/A,,Unknown,240,2013-03-07 02:30:00
4:00 AM,48.2,42.8,82,29.47,5.0,Variable,3.5,-,N/A,,Unknown,0,2013-03-07 03:00:00
4:30 AM,48.2,42.8,82,29.47,5.0,Variable,2.3,-,N/A,,Unknown,0,2013-03-07 03:30:00
5:30 AM,50.0,44.6,82,29.47,5.0,South,5.8,-,N/A,Rain,Light Rain,180,2013-03-07 04:30:00
6:00 AM,48.2,44.6,87,29.47,5.6,South,5.8,-,N/A,Rain,Light Rain,170,2013-03-07 05:00:00
6:30 AM,48.2,44.6,87,29.47,5.6,South,6.9,-,N/A,Rain,Light Rain,170,2013-03-07 05:30:00
7:00 AM,48,45,84,29.49,7,SSW,6.9,,,Rain,Light Rain,210,2013-03-07 06:00:00
7:00 AM,48.2,44.6,87,29.47,6.2,SSW,6.9,-,N/A,Rain,Light Rain,210,2013-03-07 06:00:00
7:30 AM,48.2,44.6,87,29.47,6.2,SSW,9.2,-,N/A,Rain,Light Rain,210,2013-03-07 06:30:00
8:00 AM,48.2,44.6,87,29.47,5.6,SSW,3.5,-,N/A,Rain,Light Rain,200,2013-03-07 07:00:00
8:30 AM,48.2,44.6,87,29.47,5.6,SSE,6.9,-,N/A,,Unknown,160,2013-03-07 07:30:00
9:00 AM,48.2,44.6,87,29.47,-9999.0,SSE,8.1,-,N/A,Rain,Light Rain,160,2013-03-07 08:00:00
9:30 AM,48.2,46.4,93,29.47,2.5,SSW,6.9,-,N/A,Rain,Light Rain,210,2013-03-07 08:30:00
10:00 AM,48.2,46.4,93,29.47,2.5,South,6.9,-,N/A,Rain,Light Rain,180,2013-03-07 09:00:00
10:30 AM,50.0,46.4,87,29.47,2.5,SSE,9.2,-,N/A,Rain,Light Rain,160,2013-03-07 09:30:00
11:00 AM,50.0,46.4,87,29.47,2.5,SSE,6.9,-,N/A,Rain,Light Rain,160,2013-03-07 10:00:00
11:30 AM,50.0,46.4,87,29.47,2.2,SE,3.5,-,N/A,Rain,Light Rain,130,2013-03-07 10:30:00
12:00 PM,50.0,48.2,94,29.47,1.7,SE,5.8,-,N/A,Rain,Light Rain,130,2013-03-07 11:00:00
12:30 PM,50.0,48.2,94,29.47,1.6,ESE,4.6,-,N/A,Rain,Light Rain,120,2013-03-07 11:30:00
1:00 PM,52,50,91,29.48,2,SE,6.9,,,Rain,Light Rain,130,2013-03-07 12:00:00
1:00 PM,51.8,50.0,94,29.47,1.9,SE,6.9,-,N/A,Rain,Light Rain,140,2013-03-07 12:00:00
1:30 PM,51.8,50.0,94,29.44,2.8,SSE,6.9,-,N/A,,Light Drizzle,150,2013-03-07 12:30:00
2:00 PM,51.8,50.0,94,29.44,2.5,SSE,6.9,-,N/A,,Light Drizzle,150,2013-03-07 13:00:00
2:30 PM,51.8,50.0,94,29.44,3.7,SSE,6.9,-,N/A,,Overcast,150,2013-03-07 13:30:00
2:37 PM,51.8,50.0,94,29.44,3.7,SSE,8.1,-,N/A,,Overcast,150,2013-03-07 13:37:00
3:00 PM,53.6,50.0,88,29.42,5.0,SSE,6.9,-,N/A,,Overcast,150,2013-03-07 14:00:00
3:30 PM,53.6,50.0,88,29.42,5.0,SSE,9.2,-,N/A,Rain,Light Rain,150,2013-03-07 14:30:00
4:00 PM,53.6,50.0,88,29.42,5.0,SSE,8.1,-,N/A,,Overcast,150,2013-03-07 15:00:00
4:30 PM,53.6,50.0,88,29.42,5.0,SSE,8.1,-,N/A,,Mostly Cloudy,150,2013-03-07 15:30:00
5:00 PM,53.6,50.0,88,29.42,5.0,SSE,6.9,-,N/A,,Mostly Cloudy,150,2013-03-07 16:00:00
5:30 PM,51.8,50.0,94,29.42,2.5,South,4.6,-,N/A,Rain,Light Rain,170,2013-03-07 16:30:00
6:00 PM,51.8,50.0,94,29.42,2.5,South,4.6,-,N/A,Rain,Light Rain,170,2013-03-07 17:00:00
6:30 PM,51.8,50.0,94,29.42,2.5,South,5.8,-,N/A,Rain,Light Rain,180,2013-03-07 17:30:00
7:00 PM,51,49,91,29.45,3,South,6.9,,,Rain,Light Rain,180,2013-03-07 18:00:00
7:00 PM,51.8,50.0,94,29.44,3.1,South,5.8,-,N/A,,Overcast,180,2013-03-07 18:00:00
7:30 PM,50.0,48.2,94,29.44,3.7,SSE,5.8,-,N/A,Rain,Light Rain,160,2013-03-07 18:30:00
8:00 PM,50.0,48.2,94,29.44,3.7,South,4.6,-,N/A,,Mostly Cloudy,170,2013-03-07 19:00:00
8:30 PM,50.0,48.2,94,29.44,3.7,SSE,3.5,-,N/A,,Mostly Cloudy,160,2013-03-07 19:30:00
9:00 PM,50.0,48.2,94,29.44,2.8,SE,3.5,-,N/A,,Mostly Cloudy,140,2013-03-07 20:00:00
9:30 PM,50.0,50.0,100,29.44,3.1,South,4.6,-,N/A,,Mostly Cloudy,170,2013-03-07 20:30:00
10:00 PM,50.0,48.2,94,29.44,3.1,SSE,2.3,-,N/A,,Mostly Cloudy,160,2013-03-07 21:00:00
10:30 PM,50.0,48.2,94,29.44,2.5,SSE,4.6,-,N/A,,Mostly Cloudy,150,2013-03-07 21:30:00
11:00 PM,50.0,48.2,94,29.44,1.9,SSE,3.5,-,N/A,,Light Drizzle,150,2013-03-07 22:00:00
11:30 PM,50.0,48.2,94,29.42,2.2,ESE,3.5,-,N/A,,Mostly Cloudy,120,2013-03-07 22:30:00